NOAA 16 DEB

Satellite information

Favourite Embed

Satellite Type and Status

DEBRISIN ORBIT

Key statistics

Satellite NOAA 16 DEB at a glance.

Uptime

9055

Days in orbit

Revolutions

≈ 14.3

Per day

Orbit

SSO

Sun Synchronous Orbit

Inclination

98.7

Latest

Satellite identification and parameters

Extended collection of information and parameters for NOAA 16 DEB.

Object identification

Identified? True

Debris? True

Object name: NOAA 16 DEB

International designator: 2000-055NU

Object number (NORAD): 41655

Object ID (CCSDS): 41655

Country: UNITED STATES OF AMERICA (US)

Current information (Y/N): Y

RCS size: SMALL

Orbital parameters

Period: 100.43 minutes

Inclination: 98.7229 deg

SMA: 7157.093 km

Apoapsis: 792.893 km

Periapsis: 765.022 km

RAAN: 282.9911 deg

Eccentricy: 0.0019471

Argument of periapsis: 81.3086 deg

Mean anomaly: 279.0302 deg

Mean motion: 14.33830399 rev/day

Mean motion (dot): 0.00003538 rev/day2

B* drag term: 0.0012845 1/REarth

Two-line elements (TLE)

Creation date: July 6, 2025, 10:56 p.m.

Reference frame: TEME

Reference center: EARTH

Epoch: July 6, 2025, 5:40 p.m. UTC

TLE line 0: 0 NOAA 16 DEB

TLE line 1: 1 41655U 00055NU 25187.73642433 .00003538 00000-0 12845-2 0 9997

TLE line 2: 2 41655 98.7229 282.9911 0019471 81.3086 279.0302 14.33830399477778

Live tracking on map

Real-time ground track for satellite NOAA 16 DEB.

In-orbit conjunctions

A list of the most updated potential collisions computed for object NOAA 16 DEB.

Target Orbit TCA Probability of collision Miss distance Type
RUBIN 9.1/RUBIN 9.2/PSLV SSO 2025-05-05 08:47:48 0.0001245738 522.0 (m) PAYLOAD
CZ-6A DEB LEO 2025-02-26 20:13:37 0.0003616083 312.0 (m) DEBRIS
COSMOS 1624 LEO 2024-10-20 21:49:06 0.0002091227 79.0 (m) PAYLOAD
COSMOS 1174 LEO 2024-10-04 23:43:55 0.0001007982 862.0 (m) PAYLOAD

Associated space launch

The NOAA K, L and M POES satellites begin the fifth generation of improved environmental monitoring in support of NOAA missions. The instrument payload has significant improvements and additions/deletions. The instrument changes have effected the spacecraft subsystems and data formats.

NOAA 16 DEB was lifted into orbit during the mission ‘Titan II SLV | NOAA 16’, on board a Titan II SLV space rocket.

The launch took place on Sept. 21, 2000, 10:22 a.m. from Space Launch Complex 4W.

For more information about the launch, click the button.

Launch to space Titan II SLV | NOAA 16
Titan II SLV | NOAA 16

Agency: N/A

Status: Launch Successful

Launch date: Sept. 21, 2000, 10:22 a.m. UTC

Rocket: Titan II SLV

Launch pad: Space Launch Complex 4W

Location: Vandenberg SFB, CA, USA

...

Latest news about this satellite

There are no fresh news available about this satellite. Check back as we update our databases every day.


Newsletter sign-up

Weekly statistics, charts and insights to help you stay on top of the space industry.